TimeEST,TemperatureF,Dew PointF,Humidity,Sea Level PressureIn,VisibilityMPH,Wind Direction,Wind SpeedMPH,Gust SpeedMPH,PrecipitationIn,Events,Conditions,WindDirDegrees,DateUTC
12:15 AM,26.6,23.0,86,29.48,1.8,North,13.8,-,N/A,,Overcast,360,2014-02-16 05:15:00
12:35 AM,26.6,23.0,86,29.47,2.0,North,9.2,-,N/A,,Overcast,360,2014-02-16 05:35:00
12:55 AM,26.6,24.8,93,29.45,2.5,NNW,12.7,-,N/A,,Overcast,340,2014-02-16 05:55:00
1:15 AM,26.6,24.8,93,29.44,2.5,North,13.8,-,N/A,,Overcast,360,2014-02-16 06:15:00
1:35 AM,26.6,24.8,93,29.43,2.5,NNW,12.7,-,N/A,,Overcast,340,2014-02-16 06:35:00
1:55 AM,26.6,24.8,93,29.42,3.0,NNW,12.7,-,N/A,,Overcast,340,2014-02-16 06:55:00
2:15 AM,26.6,24.8,93,29.41,4.0,NNW,15.0,-,N/A,,Overcast,340,2014-02-16 07:15:00
2:35 AM,28.4,24.8,86,29.40,4.0,NNW,13.8,25.3,N/A,,Overcast,340,2014-02-16 07:35:00
2:55 AM,28.4,23.0,80,29.40,10.0,NNW,15.0,21.9,N/A,,Overcast,340,2014-02-16 07:55:00
3:15 AM,28.4,19.4,69,29.40,10.0,NNW,16.1,26.5,N/A,,Overcast,340,2014-02-16 08:15:00
3:35 AM,28.4,19.4,69,29.41,10.0,NNW,20.7,29.9,N/A,,Overcast,340,2014-02-16 08:35:00
3:55 AM,28.4,17.6,64,29.42,8.0,NNW,23.0,29.9,N/A,,Overcast,330,2014-02-16 08:55:00
4:15 AM,26.6,17.6,69,29.43,10.0,NW,19.6,26.5,N/A,,Overcast,320,2014-02-16 09:15:00
4:35 AM,26.6,15.8,64,29.44,10.0,NW,21.9,29.9,N/A,,Overcast,320,2014-02-16 09:35:00
4:55 AM,24.8,15.8,69,29.45,7.0,NW,18.4,29.9,N/A,,Overcast,320,2014-02-16 09:55:00
5:15 AM,24.8,14.0,64,29.45,9.0,NNW,21.9,29.9,N/A,,Overcast,330,2014-02-16 10:15:00
5:35 AM,23.0,14.0,68,29.47,10.0,NW,13.8,24.2,N/A,,Mostly Cloudy,320,2014-02-16 10:35:00
5:55 AM,23.0,12.2,63,29.47,10.0,NW,17.3,25.3,N/A,,Partly Cloudy,320,2014-02-16 10:55:00
6:15 AM,21.2,12.2,68,29.48,10.0,NNW,19.6,23.0,N/A,,Clear,330,2014-02-16 11:15:00
6:35 AM,21.2,12.2,68,29.50,10.0,NW,11.5,20.7,N/A,,Clear,310,2014-02-16 11:35:00
6:55 AM,21.2,10.4,63,29.51,10.0,NW,11.5,20.7,N/A,,Clear,320,2014-02-16 11:55:00
7:15 AM,21.2,10.4,63,29.53,9.0,NW,17.3,27.6,N/A,,Clear,320,2014-02-16 12:15:00
7:35 AM,21.2,8.6,58,29.53,10.0,NW,10.4,21.9,N/A,,Clear,310,2014-02-16 12:35:00
7:55 AM,21.2,8.6,58,29.54,9.0,NW,16.1,24.2,N/A,,Clear,310,2014-02-16 12:55:00
8:15 AM,21.2,10.4,63,29.55,7.0,NW,17.3,21.9,N/A,,Partly Cloudy,320,2014-02-16 13:15:00
8:35 AM,21.2,8.6,58,29.56,5.0,NW,17.3,27.6,N/A,,Clear,310,2014-02-16 13:35:00
8:55 AM,21.2,8.6,58,29.57,5.0,NW,15.0,24.2,N/A,,Clear,310,2014-02-16 13:55:00
9:15 AM,21.2,6.8,54,29.57,9.0,NW,18.4,28.8,N/A,,Clear,310,2014-02-16 14:15:00
9:35 AM,21.2,6.8,54,29.59,6.0,WNW,19.6,33.4,N/A,,Clear,300,2014-02-16 14:35:00
9:55 AM,21.2,6.8,54,29.60,8.0,WNW,17.3,27.6,N/A,,Clear,300,2014-02-16 14:55:00
10:15 AM,21.2,6.8,54,29.61,8.0,NW,16.1,29.9,N/A,,Clear,310,2014-02-16 15:15:00
10:35 AM,21.2,6.8,54,29.61,1.5,NW,19.6,25.3,N/A,,Clear,310,2014-02-16 15:35:00
10:55 AM,23.0,6.8,50,29.61,10.0,NNW,19.6,26.5,N/A,,Clear,330,2014-02-16 15:55:00
11:15 AM,23.0,6.8,50,29.62,10.0,WNW,10.4,-,N/A,,Clear,300,2014-02-16 16:15:00
11:35 AM,23.0,6.8,50,29.63,10.0,NW,11.5,18.4,N/A,,Clear,320,2014-02-16 16:35:00
11:55 AM,23.0,6.8,50,29.63,10.0,WNW,12.7,20.7,N/A,,Clear,290,2014-02-16 16:55:00
12:15 PM,24.8,6.8,46,29.62,10.0,NNW,16.1,23.0,N/A,,Clear,330,2014-02-16 17:15:00
12:35 PM,24.8,6.8,46,29.63,10.0,WNW,17.3,26.5,N/A,,Clear,290,2014-02-16 17:35:00
12:55 PM,24.8,6.8,46,29.63,10.0,NW,19.6,23.0,N/A,,Clear,320,2014-02-16 17:55:00
1:15 PM,24.8,6.8,46,29.64,10.0,NW,13.8,25.3,N/A,,Clear,320,2014-02-16 18:15:00
1:35 PM,24.8,6.8,46,29.64,10.0,NW,16.1,24.2,N/A,,Clear,320,2014-02-16 18:35:00
1:55 PM,24.8,6.8,46,29.65,10.0,NW,16.1,24.2,N/A,,Clear,310,2014-02-16 18:55:00
2:15 PM,24.8,8.6,50,29.65,10.0,WNW,8.1,16.1,N/A,,Clear,300,2014-02-16 19:15:00
2:35 PM,24.8,5.0,43,29.67,10.0,NW,16.1,28.8,N/A,,Clear,310,2014-02-16 19:35:00
2:55 PM,24.8,6.8,46,29.67,10.0,NW,13.8,21.9,N/A,,Clear,310,2014-02-16 19:55:00
3:15 PM,24.8,6.8,46,29.68,10.0,NW,10.4,19.6,N/A,,Clear,320,2014-02-16 20:15:00
3:35 PM,24.8,6.8,46,29.69,10.0,NW,13.8,17.3,N/A,,Clear,320,2014-02-16 20:35:00
3:55 PM,24.8,5.0,43,29.69,10.0,NW,17.3,20.7,N/A,,Clear,310,2014-02-16 20:55:00
4:15 PM,23.0,6.8,50,29.69,10.0,NW,19.6,26.5,N/A,,Clear,320,2014-02-16 21:15:00
4:35 PM,21.2,6.8,54,29.71,10.0,NW,16.1,24.2,N/A,,Clear,320,2014-02-16 21:35:00
4:55 PM,21.2,5.0,50,29.72,10.0,NNW,12.7,23.0,N/A,,Clear,330,2014-02-16 21:55:00
5:15 PM,21.2,5.0,50,29.74,10.0,NNW,9.2,-,N/A,,Clear,330,2014-02-16 22:15:00
5:35 PM,21.2,5.0,50,29.75,10.0,NNW,11.5,17.3,N/A,,Clear,330,2014-02-16 22:35:00
5:55 PM,21.2,3.2,46,29.76,10.0,NW,8.1,-,N/A,,Clear,320,2014-02-16 22:55:00
6:15 PM,21.2,5.0,50,29.76,10.0,NNW,18.4,23.0,N/A,,Clear,330,2014-02-16 23:15:00
6:35 PM,21.2,3.2,46,29.76,10.0,NNW,15.0,25.3,N/A,,Clear,330,2014-02-16 23:35:00
6:55 PM,19.4,3.2,49,29.78,10.0,NW,9.2,-,N/A,,Clear,320,2014-02-16 23:55:00
7:15 PM,19.4,3.2,49,29.79,10.0,NNW,11.5,-,N/A,,Clear,340,2014-02-17 00:15:00
7:35 PM,19.4,3.2,49,29.79,10.0,NNW,10.4,-,N/A,,Clear,340,2014-02-17 00:35:00
7:55 PM,19.4,3.2,49,29.81,10.0,NW,11.5,-,N/A,,Clear,320,2014-02-17 00:55:00
8:15 PM,19.4,-0.4,42,29.81,10.0,NW,19.6,26.5,N/A,,Clear,320,2014-02-17 01:15:00
8:35 PM,17.6,-0.4,45,29.82,10.0,NW,15.0,20.7,N/A,,Clear,310,2014-02-17 01:35:00
8:55 PM,17.6,-0.4,45,29.82,10.0,NW,13.8,23.0,N/A,,Clear,310,2014-02-17 01:55:00
9:15 PM,17.6,-0.4,45,29.83,10.0,NW,8.1,16.1,N/A,,Clear,310,2014-02-17 02:15:00
9:35 PM,17.6,-0.4,45,29.84,10.0,NW,5.8,-,N/A,,Clear,310,2014-02-17 02:35:00
9:55 PM,15.8,-0.4,49,29.85,10.0,NW,6.9,-,N/A,,Clear,310,2014-02-17 02:55:00
10:15 PM,15.8,-0.4,49,29.86,10.0,WNW,8.1,-,N/A,,Clear,290,2014-02-17 03:15:00
10:35 PM,15.8,-0.4,49,29.86,10.0,West,11.5,18.4,N/A,,Clear,280,2014-02-17 03:35:00
10:55 PM,15.8,-0.4,49,29.86,10.0,NW,12.7,19.6,N/A,,Clear,310,2014-02-17 03:55:00
11:15 PM,15.8,-0.4,49,29.86,10.0,NW,13.8,-,N/A,,Clear,310,2014-02-17 04:15:00
11:35 PM,15.8,-2.2,45,29.87,10.0,WNW,12.7,-,N/A,,Clear,300,2014-02-17 04:35:00
11:55 PM,15.8,-2.2,45,29.88,10.0,NW,13.8,20.7,N/A,,Clear,310,2014-02-17 04:55:00